Wind_Speed
51 50 49 48 46 42 40 38 35 31 29 29 28 27 27 28 30 30 33 33 31 29 27 26 27 27 29 31 33 34 35 35 36 36 38 38 37 35 33 32 31 28 27
56 56 56 55 53 49 46 44 40 36 34 35 35 33 31 31 31 30 31 33 32 29 26 25 24 25 26 28 30 32 33 34 35 37 39 38 36 33 32 31 30 29 28
61 61 61 59 57 55 52 49 45 42 40 39 39 37 34 32 31 30 31 32 31 29 26 24 21 20 21 23 25 27 29 31 33 36 37 36 33 29 28 28 27 27 26
69 67 66 65 63 62 60 56 49 45 44 44 43 40 36 34 32 30 30 31 30 28 25 22 19 16 16 17 18 20 24 28 31 34 34 34 31 28 26 26 26 25 23
73 75 75 75 75 72 67 61 56 55 52 50 47 43 40 38 35 32 30 30 29 27 24 21 17 13 12 13 14 15 19 23 27 30 32 31 28 27 26 24 22 21 18
75 75 72 72 72 70 69 69 70 68 63 56 49 45 43 42 38 35 32 30 29 27 24 21 18 14 12 12 13 14 16 17 20 24 27 27 26 25 23 21 19 18 16
89 86 83 80 78 79 80 80 81 77 69 61 53 48 46 43 41 38 34 31 30 28 25 22 19 15 14 13 14 16 19 21 23 24 25 25 24 22 20 19 18 17 15
76 78 81 84 86 86 86 84 81 76 69 64 58 51 47 45 44 41 38 34 31 29 26 23 19 16 14 15 16 18 20 24 27 26 24 22 20 19 19 18 17 15 14
46 49 52 56 61 66 69 70 69 68 65 61 58 52 49 48 46 43 40 37 34 32 28 24 21 17 14 15 17 18 20 22 25 25 23 21 20 19 18 17 15 13 13
39 40 39 38 38 42 46 51 55 57 57 56 53 49 48 47 46 43 41 39 36 33 30 26 23 19 16 16 17 18 20 22 23 23 22 21 20 19 16 14 13 12 11
44 43 41 37 34 34 36 39 44 49 53 54 52 49 46 45 45 43 42 39 36 33 31 28 24 21 19 19 20 20 21 22 23 22 21 20 18 16 14 13 12 10 8
48 46 44 39 34 32 31 30 31 34 40 47 52 55 51 45 45 45 42 39 36 33 31 29 25 23 23 22 23 24 24 24 23 22 20 19 17 15 15 14 11 9 8
52 50 47 44 38 33 29 26 25 26 27 33 44 55 54 49 48 48 44 39 35 32 30 28 25 24 24 24 26 26 25 23 22 21 19 17 16 16 15 14 11 10 10
55 52 49 46 43 37 32 28 26 26 27 28 34 47 57 51 48 48 44 40 35 31 29 27 25 24 24 25 25 24 22 19 19 19 18 17 16 14 14 13 13 13 13
51 48 46 45 43 40 36 31 29 30 30 31 33 40 50 50 44 44 40 37 32 30 28 26 24 24 24 23 23 20 18 19 19 18 17 15 13 12 13 14 14 14 15
45 41 40 40 42 41 37 34 32 31 33 32 32 34 40 43 42 41 38 35 31 29 27 26 25 25 24 23 21 19 20 19 18 16 15 14 13 13 13 15 16 17 17
37 33 32 34 38 39 38 35 32 31 32 32 32 32 33 36 37 40 38 35 31 28 27 27 27 27 26 25 22 21 20 18 16 16 16 16 15 15 15 16 18 19 20
27 22 23 29 34 36 36 34 32 31 31 31 31 31 31 32 34 38 39 35 31 28 28 29 28 28 28 26 24 23 20 18 17 17 17 17 17 16 17 19 21 22 23
17 13 16 24 29 31 32 33 32 31 31 31 31 32 30 31 33 38 38 34 30 29 31 30 28 27 27 26 25 22 20 18 17 18 18 17 17 17 19 21 23 24 25
9 7 13 19 23 27 29 30 31 31 32 33 34 35 35 34 36 38 37 33 31 32 34 32 28 26 26 25 23 21 19 18 18 18 18 18 18 18 20 21 24 25 26
1 5 12 17 21 24 25 26 27 29 32 35 36 38 38 37 37 36 33 32 32 33 33 31 28 26 25 24 22 21 20 19 19 19 19 19 19 19 20 21 22 22 23
6 9 13 17 20 21 22 23 24 26 29 33 38 41 41 38 37 34 32 32 32 32 32 29 27 25 24 23 22 21 20 20 19 19 19 19 18 19 19 19 19 19 21
12 14 16 18 20 20 22 24 26 29 32 36 39 42 41 39 36 35 34 33 32 31 30 27 25 23 22 22 21 20 19 19 18 18 18 19 19 18 18 18 18 19 21
17 19 21 23 25 28 31 32 33 36 39 42 42 41 39 36 35 35 34 33 31 29 28 25 24 22 21 19 18 17 17 17 17 17 18 18 18 18 18 18 19 20 21
25 27 30 32 34 35 37 39 40 41 42 41 39 36 33 32 32 32 32 31 29 27 26 24 22 20 18 16 15 15 14 14 15 16 17 17 17 17 18 19 19 20 21
34 36 37 37 38 38 39 39 40 39 37 36 34 31 31 30 30 29 29 28 26 24 23 21 18 16 14 13 13 13 13 13 14 15 15 16 16 17 18 19 19 20 22
Wind_Direction
279 280 281 282 281 280 280 277 275 278 287 293 296 295 299 305 311 316 319 318 314 311 303 291 278 268 260 257 258 258 257 256 256 255 254 252 249 246 243 241 240 242 245
273 275 277 279 280 279 278 276 272 275 286 295 297 295 294 298 305 310 314 315 314 312 307 298 285 272 263 259 259 259 258 256 251 247 247 246 244 242 238 235 237 243 248
270 270 272 274 275 275 275 274 271 273 281 291 294 293 291 294 301 305 308 310 311 311 309 305 294 278 265 260 259 256 252 247 241 239 240 238 235 229 227 228 235 242 249
268 268 269 271 272 271 271 269 268 272 278 286 290 289 288 292 297 301 303 304 305 306 306 306 300 286 270 262 259 254 247 242 237 234 230 228 222 219 223 231 239 246 249
260 260 261 264 266 264 261 261 266 275 279 281 283 283 284 288 291 294 296 297 297 298 300 302 300 290 278 272 262 253 242 235 230 225 219 217 212 216 224 230 234 237 238
271 267 261 259 258 256 255 259 269 276 277 277 277 277 278 281 283 285 286 287 288 288 290 294 296 291 279 271 261 249 239 229 217 212 210 209 208 212 217 221 225 227 232
273 272 268 264 261 261 262 264 269 272 273 272 271 271 271 272 275 276 277 277 278 278 280 284 285 283 272 262 255 246 241 235 227 221 216 210 205 205 208 215 221 225 229
281 279 276 272 269 267 266 266 267 268 268 267 265 264 263 264 266 267 268 268 267 266 268 271 274 270 264 258 253 248 244 236 229 222 214 204 203 207 210 214 217 220 225
294 290 286 281 276 271 267 265 264 262 261 259 258 256 255 256 257 258 259 259 258 257 257 260 263 258 255 252 248 243 238 232 225 217 208 203 205 206 209 211 213 217 224
298 298 298 297 291 281 271 260 252 248 247 246 245 243 244 246 247 248 250 250 250 249 249 250 253 250 242 237 234 231 230 226 220 213 206 201 200 202 205 210 216 224 231
291 290 290 293 293 287 279 266 254 244 238 232 227 224 227 233 236 238 240 240 241 242 243 244 245 244 236 228 224 226 227 224 216 207 200 197 197 200 205 213 218 222 237
286 285 283 283 284 284 280 269 254 245 239 231 220 211 210 216 227 231 232 232 233 236 238 238 239 238 233 226 221 225 226 218 206 198 195 195 198 203 206 205 207 220 241
284 280 276 273 272 273 272 264 249 239 236 230 221 212 205 205 215 223 224 224 225 230 233 232 232 233 228 222 218 220 216 204 196 191 192 197 203 206 205 204 210 227 241
286 280 273 266 261 259 260 256 245 237 233 227 221 215 208 204 208 212 215 217 220 225 226 225 225 225 220 215 212 203 192 187 188 189 194 200 205 208 210 214 224 233 242
290 279 270 259 251 248 248 249 243 236 231 226 222 218 216 208 204 204 205 209 213 215 216 217 217 216 210 201 191 181 181 184 188 191 196 202 208 214 220 227 233 239 248
291 280 266 252 241 237 238 239 238 234 228 224 222 220 218 210 200 198 199 201 203 207 208 208 205 204 197 188 182 182 184 187 191 196 201 207 214 223 231 237 240 245 253
295 280 260 241 230 227 228 230 231 229 224 220 219 217 216 211 198 193 194 197 200 203 203 198 197 197 193 188 186 188 189 193 199 204 207 213 221 231 239 242 245 249 255
298 278 249 227 221 220 220 222 224 221 218 215 213 211 209 205 195 189 190 194 198 200 195 191 191 190 189 189 191 192 194 199 204 208 213 219 227 237 245 248 251 253 256
300 269 233 215 212 211 212 213 215 213 211 209 206 202 199 196 193 188 188 192 195 193 188 186 185 186 188 189 191 193 197 203 209 215 221 227 234 244 250 254 256 258 261
298 245 209 201 201 202 202 204 207 206 205 205 202 199 196 194 190 187 188 190 190 187 185 184 183 184 186 187 190 195 202 209 217 223 228 234 241 248 254 258 260 263 268
313 177 181 183 185 188 191 196 200 200 199 199 199 196 192 189 187 186 187 188 187 186 185 184 182 181 184 189 195 202 209 216 223 229 234 240 246 253 260 264 266 269 274
106 132 152 162 167 174 180 185 186 185 185 186 187 185 182 183 182 181 182 182 184 186 186 184 183 185 190 196 202 208 214 220 226 233 241 248 255 263 269 271 271 274 279
105 120 136 146 153 157 156 153 152 152 155 158 163 167 170 172 173 174 176 178 181 184 184 185 188 192 195 198 203 210 217 223 229 237 247 254 261 267 272 273 274 277 283
108 118 125 129 130 128 127 129 134 138 142 145 150 154 159 163 168 171 174 176 178 179 181 182 184 186 190 196 204 212 220 227 233 240 248 256 263 268 271 274 278 281 286
109 114 116 116 117 118 121 127 132 136 138 142 146 150 156 161 165 168 171 172 173 175 176 177 179 183 189 198 207 216 224 231 239 245 252 258 264 268 272 277 282 286 288
109 111 113 116 120 122 124 126 130 134 137 142 146 150 155 158 161 164 167 169 171 174 177 180 186 191 200 212 222 228 231 235 243 251 255 260 266 272 276 280 284 288 289
Height
5767 5765 5763 5763 5763 5762 5761 5759 5757 5755 5754 5752 5750 5748 5747 5745 5743 5740 5737 5733 5729 5725 5722 5719 5716 5715 5716 5718 5721 5723 5726 5728 5730 5732 5732 5733 5734 5736 5739 5741 5744 5746 5747
5751 5749 5747 5746 5746 5747 5746 5745 5744 5742 5741 5741 5740 5739 5737 5736 5734 5732 5729 5727 5723 5719 5715 5712 5709 5707 5707 5708 5711 5714 5716 5718 5720 5721 5722 5724 5726 5729 5731 5735 5738 5740 5741
5732 5730 5728 5727 5727 5728 5729 5730 5729 5729 5729 5729 5729 5729 5728 5727 5725 5723 5722 5720 5717 5713 5709 5705 5702 5700 5700 5701 5703 5705 5706 5708 5709 5712 5714 5717 5719 5722 5725 5728 5731 5734 5735
5711 5709 5708 5707 5707 5709 5711 5713 5713 5714 5715 5716 5717 5718 5718 5717 5716 5714 5714 5713 5710 5707 5703 5700 5697 5695 5695 5695 5697 5697 5698 5698 5700 5703 5706 5709 5712 5716 5719 5722 5725 5727 5729
5690 5689 5687 5686 5686 5687 5689 5692 5694 5697 5699 5701 5703 5705 5706 5706 5706 5705 5705 5705 5704 5702 5698 5695 5692 5691 5690 5691 5692 5692 5693 5693 5693 5695 5699 5702 5706 5710 5713 5717 5719 5722 5724
5670 5668 5666 5665 5664 5665 5666 5669 5673 5678 5682 5685 5688 5691 5693 5695 5695 5695 5695 5696 5696 5695 5693 5690 5688 5686 5686 5687 5688 5689 5690 5691 5691 5693 5695 5698 5700 5704 5708 5712 5715 5718 5720
5642 5642 5641 5641 5642 5644 5645 5647 5651 5655 5661 5666 5671 5675 5678 5681 5683 5684 5684 5686 5687 5688 5686 5684 5683 5682 5681 5682 5684 5685 5687 5688 5689 5691 5692 5694 5697 5701 5704 5708 5711 5714 5716
5612 5610 5610 5610 5612 5614 5617 5620 5625 5632 5638 5645 5652 5658 5662 5666 5669 5672 5673 5674 5677 5679 5680 5678 5677 5676 5676 5677 5679 5681 5683 5684 5685 5686 5688 5691 5695 5699 5702 5705 5708 5710 5712
5591 5588 5586 5584 5584 5585 5588 5592 5597 5605 5613 5621 5630 5638 5645 5649 5654 5658 5661 5663 5666 5670 5671 5671 5671 5671 5671 5672 5674 5676 5678 5680 5681 5683 5685 5689 5693 5697 5700 5703 5705 5707 5708
5579 5576 5573 5569 5567 5565 5564 5566 5569 5576 5586 5596 5607 5618 5626 5632 5637 5642 5647 5651 5655 5659 5662 5663 5664 5666 5667 5667 5669 5672 5674 5676 5678 5680 5683 5686 5690 5693 5696 5699 5701 5703 5704
5566 5563 5561 5558 5555 5552 5550 5549 5550 5554 5561 5571 5584 5597 5609 5616 5621 5627 5634 5639 5644 5648 5651 5654 5656 5659 5661 5662 5665 5667 5670 5672 5675 5677 5680 5684 5687 5690 5693 5695 5697 5699 5701
5549 5548 5547 5546 5544 5542 5539 5538 5538 5540 5545 5552 5563 5576 5589 5598 5607 5613 5620 5627 5633 5638 5642 5646 5649 5652 5655 5657 5659 5662 5665 5667 5671 5674 5678 5682 5685 5688 5690 5692 5694 5696 5697
5530 5529 5529 5529 5530 5530 5530 5530 5530 5532 5536 5541 5549 5559 5569 5581 5590 5598 5607 5615 5622 5629 5634 5638 5641 5645 5648 5650 5653 5656 5660 5663 5667 5671 5676 5680 5683 5685 5687 5689 5691 5692 5694
5507 5506 5507 5509 5513 5517 5519 5520 5523 5526 5529 5534 5540 5547 5556 5566 5576 5584 5595 5604 5613 5619 5625 5629 5634 5639 5642 5644 5647 5651 5656 5660 5665 5669 5673 5677 5680 5682 5684 5686 5688 5690 5691
5484 5482 5483 5487 5494 5501 5506 5510 5514 5518 5522 5527 5532 5538 5546 5556 5567 5576 5587 5597 5605 5611 5617 5622 5628 5633 5636 5640 5644 5648 5654 5659 5663 5667 5671 5674 5676 5679 5681 5683 5684 5685 5686
5463 5461 5462 5467 5475 5484 5492 5498 5504 5509 5514 5520 5526 5532 5540 5549 5560 5571 5581 5590 5598 5605 5611 5616 5622 5628 5633 5637 5641 5647 5652 5657 5661 5664 5667 5670 5673 5675 5677 5679 5680 5681 5681
5446 5444 5445 5450 5459 5469 5479 5487 5494 5500 5506 5513 5519 5527 5535 5544 5555 5566 5576 5585 5592 5599 5606 5612 5619 5625 5630 5635 5640 5645 5650 5654 5658 5661 5664 5667 5669 5671 5673 5674 5675 5677 5677
5434 5432 5434 5439 5448 5458 5469 5478 5485 5492 5499 5506 5513 5521 5531 5540 5551 5562 5572 5581 5588 5595 5602 5609 5616 5622 5628 5633 5638 5643 5648 5651 5655 5658 5660 5663 5665 5667 5669 5671 5672 5673 5673
5426 5426 5429 5434 5443 5451 5461 5470 5478 5485 5492 5500 5509 5518 5527 5538 5548 5560 5569 5578 5586 5592 5600 5607 5614 5620 5625 5631 5636 5641 5645 5649 5652 5655 5657 5659 5662 5664 5666 5667 5667 5668 5668
5423 5424 5427 5433 5440 5448 5456 5464 5472 5480 5487 5495 5506 5516 5526 5537 5548 5558 5568 5576 5584 5591 5598 5606 5612 5618 5623 5629 5634 5638 5642 5646 5649 5652 5654 5656 5659 5660 5661 5662 5662 5662 5662
5424 5425 5429 5434 5440 5447 5455 5462 5468 5475 5483 5492 5503 5514 5525 5537 5548 5559 5569 5577 5585 5592 5599 5605 5611 5616 5622 5627 5631 5636 5639 5643 5646 5648 5651 5653 5655 5656 5656 5656 5656 5656 5655
5427 5429 5432 5437 5443 5449 5455 5461 5467 5474 5481 5490 5501 5513 5526 5538 5549 5559 5569 5578 5586 5593 5600 5605 5610 5615 5620 5625 5629 5633 5636 5639 5642 5644 5647 5648 5650 5650 5650 5650 5649 5649 5648
5433 5435 5438 5442 5447 5451 5456 5462 5469 5476 5483 5493 5504 5518 5530 5542 5552 5561 5570 5579 5587 5594 5600 5605 5610 5615 5619 5624 5627 5630 5633 5635 5638 5640 5642 5643 5644 5644 5644 5643 5643 5642 5641
5441 5443 5446 5449 5453 5458 5464 5471 5478 5485 5494 5504 5516 5527 5538 5547 5556 5564 5572 5580 5588 5594 5600 5604 5609 5614 5619 5622 5625 5627 5630 5632 5634 5636 5637 5638 5638 5638 5638 5637 5637 5636 5635
5452 5454 5457 5461 5466 5471 5478 5484 5492 5500 5509 5518 5528 5537 5545 5553 5561 5569 5576 5583 5589 5595 5600 5604 5609 5613 5617 5620 5622 5625 5626 5628 5630 5631 5632 5632 5632 5632 5632 5632 5631 5630 5629
5466 5469 5473 5477 5482 5488 5494 5500 5508 5515 5522 5530 5538 5545 5552 5560 5567 5574 5580 5586 5591 5596 5600 5605 5608 5612 5615 5617 5619 5621 5622 5624 5625 5626 5627 5627 5627 5627 5627 5626 5625 5624 5622